Regional Weather Roundup
Issued by NWS

Home | Current Version | Previous Version | Text Only | Print | Product List | Glossary On
Versions: 1 2 3 4 5 6 7 8 9 10 11 12 13 14 15 16 17 18 19 20 21 22 23 24 25 26 27 28 29 30 31 32 33 34 35 36 37 38 39 40 41 42 43 44 45 46 47 48 49 50
000
ASCA44 KEWX 180420
RWRMX

LATIN AMERICA AND CARIBBEAN REGIONAL WEATHER ROUNDUP
NATIONAL WEATHER SERVICE AUSTIN/SAN ANTONIO TX
1100 PM CDT WED SEP 17 2014

NOTE: "FAIR" INDICATED FEW OR NO CLOUDS BELOW 12,000 FEET WITH NO
SIGNIFICANT WEATHER AND/OR OBSTRUCTIONS TO VISIBILITY.

BAJA CALIFORNIA

CITY           SKY/WX    TMP DP  RH WIND       PRES   REMARKS
LA PAZ         PTCLDY    77  72  83 CALM      29.88
MEXICALI       CLEAR     93  63  36 SW5       29.67  HX  94
S.J. DEL CABO    N/A    N/A N/A N/A MISG        N/A
TIJUANA        PTCLDY    72  64  78 W9        29.82R

NORTHWESTERN MEXICO

CITY           SKY/WX    TMP DP  RH WIND       PRES   REMARKS
CULIACAN       CLOUDY    84  77  79 CALM      29.83  HX  94
DURANGO        CLEAR     66  57  72 S8        30.16R
HERMOSILLO     CLOUDY    77  75  94 NW5       29.82
LOS MOCHIS     PTCLDY    81  72  74 CALM      29.84R
OBREGON          N/A    N/A N/A N/A MISG        N/A

NORTHEASTERN MEXICO

CITY           SKY/WX    TMP DP  RH WIND       PRES   REMARKS
CHIHUAHUA      MOCLDY    73  57  56 W20       30.05
MONTERREY      PTCLDY    79  70  73 E6        29.90
REYNOSA        CLEAR     75  72  88 SE5       29.90
TORREON        PTCLDY    82  57  42 CALM      29.95
CD. VICTORIA   CLEAR     77  70  78 SE7       29.92

WESTERN MEXICO

CITY           SKY/WX    TMP DP  RH WIND       PRES   REMARKS
AGUASCALIENTES CLEAR     61  57  88 NE5       30.22
DEL BAJIO      PTCLDY    64  57  77 CALM      30.25R
GUADALAJARA    PTCLDY    64  61  88 CALM      30.13
MAZATLAN       MOCLDY    79  75  89 N8        29.82R
P. VALLARTA    MOCLDY    77  73  88 CALM      29.83S
ZACATECAS      PTCLDY    64  50  59 CALM      30.24R

CENTRAL MEXICO

CITY           SKY/WX    TMP DP  RH WIND       PRES   REMARKS
CUERNAVACA     CLEAR     68  61  77 CALM      30.13R
MEXICO CITY    PTCLDY    63  48  59 SE7       30.33R
MORELIA        CLEAR     63  59  88 SW3       30.22
PUEBLA         PTCLDY    63  55  77 SE3       30.37R
QUERETARO      MOCLDY    66  61  82 SE6       30.28R
S. LUIS POTOSI PTCLDY    64  59  82 CALM      30.21R
TAMPICO        CLEAR     81  75  83 SE5       29.92R
TOLUCA         PTCLDY    54  46  76 SE7       30.41R

SOUTHERN MEXICO

CITY           SKY/WX    TMP DP  RH WIND       PRES   REMARKS
ACAPULCO       LGT RAIN  79  75  89 NE6       29.92R
OAXACA         MOCLDY    68  59  73 CALM      30.22R
VERACRUZ       PTCLDY    79  75  89 NE3       29.89F

YUCATAN PENINSULA

CITY           SKY/WX    TMP DP  RH WIND       PRES   REMARKS
CAMPECHE       MOCLDY    81  79  94 E6        29.92R
CANCUN         PTCLDY    79  75  89 CALM      29.98S
COZUMEL        PTCLDY    73  73 100 CALM      29.98F
MERIDA         CLEAR     79  72  78 E10       29.95S
TAPACHULA      PTCLDY    81  75  83 CALM      29.96R
TUX. GUTIERREZ CLEAR     75  72  88 SW3       29.97R
VILLAHERMOSA   PTCLDY    79  75  89 CALM      29.93R

CENTRAL AMERICA

CITY           SKY/WX    TMP DP  RH WIND       PRES   REMARKS

CARIBBEAN

CITY           SKY/WX    TMP DP  RH WIND       PRES   REMARKS
ARUBA          PTCLDY    82  75  78 E10       29.89F
KINGSTON       PTCLDY    81  73  78 N8        29.94S
SAN JUAN       PTCLDY    82  75  78 NE8       29.97F
SANTO DOMINGO  PTCLDY    75  72  88 E5        29.97S
ST. CROIX      CLEAR     79  73  83 NE3       29.97F
ST. THOMAS     CLEAR     81  73  78 E3        29.97S

$$




USA.gov is the U.S. government's official web portal to all federal, state and local government web resources and services.